SV1BYK-4 Weather Reports


Display with metric or nautical units.
time (UTC)temp
F
wind
direction
speed
MPH
gust
MPH
rain 1hr
in
rain 24hr
in
rain mn
in
humidity
%
barometer
mb
20260508194239 69 275 1.0 4.0 0.00 0.00 0.00 50 1014.1
20260508192439 69 225 2.0 2.0 0.00 0.00 0.00 51 1014.0
20260508185739 69 230 0.0 2.0 0.00 0.00 0.00 50 1013.9
20260508184839 69 185 1.0 4.0 0.00 0.00 0.00 50 1013.7
20260508183939 69 216 2.0 4.0 0.00 0.00 0.00 50 1013.6
20260508183039 68 292 0.0 4.0 0.00 0.00 0.00 55 1013.4
20260508181239 69 296 4.0 8.0 0.00 0.00 0.00 57 1013.5
20260508174539 69 264 4.0 7.0 0.00 0.00 0.00 56 1012.9
20260508172739 68 243 4.0 8.0 0.00 0.00 0.00 56 1012.3
20260508171839 69 192 2.0 7.0 0.00 0.00 0.00 56 1012.3
20260508170039 69 175 4.0 8.0 0.00 0.00 0.00 54 1012.6
20260508165139 69 116 2.0 7.0 0.00 0.00 0.00 53 1012.5
20260508164239 70 137 2.0 7.0 0.00 0.00 0.00 51 1012.3
20260508163339 70 128 2.0 7.0 0.00 0.00 0.00 51 1012.3
20260508161539 70 107 6.0 11.0 0.00 0.00 0.00 50 1012.3
20260508160639 71 137 3.0 7.0 0.00 0.00 0.00 48 1012.3
20260508155739 71 124 2.0 8.0 0.00 0.00 0.00 49 1012.4
20260508154839 71 235 3.0 11.0 0.00 0.00 0.00 48 1012.4
20260508153939 71 224 3.0 11.0 0.00 0.00 0.00 48 1012.4
20260508153039 71 129 3.0 9.0 0.00 0.00 0.00 47 1012.3
20260508151239 72 125 4.0 8.0 0.00 0.00 0.00 47 1012.2
20260508150339 72 103 2.0 9.0 0.00 0.00 0.00 46 1012.3
20260508145439 74 129 3.0 9.0 0.00 0.00 0.00 44 1012.3
20260508144539 73 103 3.0 11.0 0.00 0.00 0.00 48 1012.2
20260508142739 74 116 2.0 11.0 0.00 0.00 0.00 47 1012.3
20260508141839 73 161 2.0 8.0 0.00 0.00 0.00 48 1012.3
20260508140939 74 134 2.0 9.0 0.00 0.00 0.00 48 1012.5
20260508140039 75 144 2.0 9.0 0.00 0.00 0.00 47 1012.6
20260508132439 74 216 2.0 8.0 0.00 0.00 0.00 46 1013.1
20260508130639 74 115 3.0 11.0 0.00 0.00 0.00 45 1013.3
20260508125739 74 128 2.0 11.0 0.00 0.00 0.00 44 1013.4
20260508124839 75 128 2.0 9.0 0.00 0.00 0.00 43 1013.6
20260508123939 73 136 3.0 14.0 0.00 0.00 0.00 43 1013.6
20260508123039 73 100 5.0 14.0 0.00 0.00 0.00 42 1013.9
20260508122139 74 193 2.0 9.0 0.00 0.00 0.00 42 1014.1
20260508121239 73 205 2.0 13.0 0.00 0.00 0.00 43 1014.3
20260508114539 73 227 4.0 7.0 0.00 0.00 0.00 49 1014.3
20260508113639 73 247 2.0 6.0 0.00 0.00 0.00 43 1014.3
20260508112739 72 217 3.0 4.0 0.00 0.00 0.00 47 1013.9
20260508111839 72 204 0.0 4.0 0.00 0.00 0.00 47 1014.3
20260508110939 71 268 1.0 6.0 0.00 0.00 0.00 47 1014.5
20260508110039 71 276 3.0 6.0 0.00 0.00 0.00 48 1014.7
20260508103339 71 265 2.0 7.0 0.00 0.00 0.00 48 1015.3
20260508101539 71 247 2.0 4.0 0.00 0.00 0.00 49 1015.3
20260508100639 70 177 2.0 4.0 0.00 0.00 0.00 51 1015.2
20260508095739 70 222 1.0 4.0 0.00 0.00 0.00 53 1015.4
20260508093939 70 226 4.0 7.0 0.00 0.00 0.00 54 1016.1
20260508093039 71 174 2.0 4.0 0.00 0.00 0.00 53 1016.0
20260508092139 70 252 1.0 8.0 0.00 0.00 0.00 54 1016.0
20260508091239 69 228 2.0 6.0 0.00 0.00 0.00 56 1016.3
20260508090339 70 202 2.0 7.0 0.00 0.00 0.00 54 1016.2
20260508084539 69 193 3.0 8.0 0.00 0.00 0.00 56 1016.4
20260508083639 69 215 3.0 6.0 0.00 0.00 0.00 56 1016.4
20260508081839 68 155 2.0 4.0 0.00 0.00 0.00 57 1016.5
20260508080938 69 140 1.0 4.0 0.00 0.00 0.00 58 1016.4
20260508073339 68 133 4.0 7.0 0.00 0.00 0.00 55 1016.7
20260508072439 68 90 2.0 4.0 0.00 0.00 0.00 54 1016.8
20260508071538 68 136 3.0 6.0 0.00 0.00 0.00 52 1016.8
20260508070638 68 109 2.0 6.0 0.00 0.00 0.00 49 1016.9
20260508065739 69 220 1.0 6.0 0.00 0.00 0.00 47 1017.2
20260508063939 68 208 2.0 6.0 0.00 0.00 0.00 44 1017.1
20260508063039 68 233 2.0 6.0 0.00 0.00 0.00 43 1016.8
20260508062138 68 257 2.0 7.0 0.00 0.00 0.00 43 1016.7
20260508061238 68 260 4.0 9.0 0.00 0.00 0.00 43 1016.6
20260508055439 68 269 3.0 7.0 0.00 0.00 0.00 46 1016.1
20260508054539 68 262 2.0 4.0 0.00 0.00 0.00 48 1015.8
20260508053639 68 280 0.0 4.0 0.00 0.00 0.00 46 1015.5
20260508052738 67 292 2.0 4.0 0.00 0.00 0.00 52 1015.3
20260508050939 67 292 0.0 2.0 0.00 0.00 0.00 53 1015.0
20260508050039 67 292 0.0 2.0 0.00 0.00 0.00 54 1015.0
20260508045139 67 292 0.0 2.0 0.00 0.00 0.00 55 1014.9
20260508043339 66 292 0.0 2.0 0.00 0.00 0.00 55 1014.7
20260508041538 65 292 0.0 2.0 0.00 0.00 0.00 57 1014.3
20260508040639 66 292 0.0 2.0 0.00 0.00 0.00 57 1014.1
20260508035738 66 292 0.0 2.0 0.00 0.00 0.00 58 1013.9
20260508034839 65 292 0.0 2.0 0.00 0.00 0.00 59 1013.8
20260508033939 65 292 0.0 2.0 0.00 0.00 0.00 60 1013.9
20260508032138 65 292 0.0 2.0 0.00 0.00 0.00 61 1013.8
20260508031239 65 292 2.0 2.0 0.00 0.00 0.00 61 1014.0
20260508030339 65 292 0.0 2.0 0.00 0.00 0.00 61 1013.8
20260508023639 65 0 0.0 0.0 0.00 0.00 0.00 60 1013.9
20260508022739 65 292 0.0 2.0 0.00 0.00 0.00 60 1014.0
20260508021838 65 292 1.0 2.0 0.00 0.00 0.00 61 1014.0
20260508020938 65 292 0.0 2.0 0.00 0.00 0.00 61 1014.0
20260508020039 65 292 0.0 2.0 0.00 0.00 0.00 62 1014.1
20260508013339 65 292 0.0 2.0 0.00 0.00 0.00 63 1014.3
20260508012438 65 292 0.0 2.0 0.00 0.00 0.00 64 1014.4
20260508011538 65 292 0.0 2.0 0.00 0.00 0.00 63 1014.3
20260508004838 65 292 0.0 2.0 0.00 0.00 0.00 62 1014.7
20260508003938 65 292 1.0 2.0 0.00 0.00 0.00 63 1014.6
20260508003038 65 292 0.0 2.0 0.00 0.00 0.00 64 1014.5
20260508002139 65 292 0.0 2.0 0.00 0.00 0.00 64 1014.7
20260508001238 65 292 1.0 2.0 0.00 0.00 0.00 64 1014.7
20260508000338 65 292 0.0 2.0 0.00 0.00 0.00 65 1014.6
20260507235438 65 292 1.0 2.0 0.00 0.00 0.00 64 1014.8
20260507233639 66 272 2.0 4.0 0.00 0.00 0.00 63 1015.3
20260507232738 66 268 1.0 4.0 0.00 0.00 0.00 63 1015.4
20260507231839 66 240 2.0 4.0 0.00 0.00 0.00 62 1015.4
20260507230938 66 146 2.0 4.0 0.00 0.00 0.00 62 1015.4
20260507230039 66 230 1.0 4.0 0.00 0.00 0.00 62 1015.3
20260507225139 66 245 1.0 6.0 0.00 0.00 0.00 61 1015.5
20260507224238 66 257 4.0 6.0 0.00 0.00 0.00 60 1015.7
20260507223338 66 256 2.0 4.0 0.00 0.00 0.00 59 1015.6
20260507222439 66 240 2.0 4.0 0.00 0.00 0.00 59 1015.7
20260507221538 66 237 2.0 4.0 0.00 0.00 0.00 58 1015.8
20260507220638 66 164 1.0 4.0 0.00 0.00 0.00 57 1015.8
20260507215738 67 147 0.0 4.0 0.00 0.00 0.00 57 1015.9
20260507213939 67 208 2.0 4.0 0.00 0.00 0.00 55 1016.1
20260507212138 67 213 2.0 4.0 0.00 0.00 0.00 53 1016.3
20260507211238 67 233 1.0 4.0 0.00 0.00 0.00 53 1016.2
20260507205438 68 231 2.0 7.0 0.00 0.00 0.00 48 1016.3
20260507204538 68 219 3.0 6.0 0.00 0.00 0.00 46 1016.2
20260507203638 68 268 2.0 4.0 0.00 0.00 0.00 46 1016.0
20260507202739 68 273 2.0 4.0 0.00 0.00 0.00 46 1016.2
20260507201838 68 280 2.0 4.0 0.00 0.00 0.00 47 1016.1
20260507200938 68 282 2.0 4.0 0.00 0.00 0.00 47 1016.1
20260507200038 68 271 2.0 2.0 0.00 0.00 0.00 46 1016.1